Regional Weather Roundup
Issued by NWS Bismarck, ND

Home | Current Version | Previous Version | Text Only | Print | Product List | Glossary On
Versions: 1 2 3 4 5 6 7 8 9 10 11 12 13 14 15 16 17 18 19 20 21 22 23 24 25 26 27 28 29 30 31 32 33 34 35 36 37 38 39 40 41 42 43 44 45 46 47 48 49 50
000
ASUS43 KBIS 041902
RWRBIS

NWR BROADCAST TEXT
NATIONAL WEATHER SERVICE BISMARCK ND
200 PM CDT FRI SEP 04 2015

NOTE: "FAIR" INDICATES FEW OR NO CLOUDS BELOW 12,000 FEET WITH NO
SIGNIFICANT WEATHER AND/OR OBSTRUCTIONS TO VISIBILITY.


CITY           SKY/WX    TMP DP  RH WIND       PRES   REMARKS
WILLISTON      CLOUDY    67  54  63 N15       29.89S
MINOT          CLOUDY    75  64  68 NE9       29.77F
MINOT AFB      NOT AVBL
BISMARCK       CLOUDY    80  71  74 SW7       29.80F
DICKINSON      CLOUDY    68  63  84 N8        29.83S HAZE
GARRISON         N/A     76  65  68 SE12G17   29.81S
HETTINGER ARPT SUNNY     85  59  41 S5        29.82S
JAMESTOWN      CLOUDY    77  67  71 S10       29.79F
HAZEN          FAIR      75  66  73 SE5       29.80S
OAKES            N/A     73  73 100 S9        29.80S
STANLEY        CLOUDY    63  63 100 N15       29.86S
$$

CITY           SKY/WX    TMP DP  RH WIND       PRES   REMARKS
GRAND FORKS    CLOUDY    81  72  74 S16       29.76S
GRAND FORKS AF CLOUDY    81  73  75 S13       29.77S
DEVILS LAKE    CLOUDY    70  63  78 SW7       29.75F
FARGO          LGT RAIN  78  69  73 SW15      29.80F
CAVALIER       TSTM      72  70  94 SE6       29.77F
GRAFTON        TSTM      72  72 100 W3        29.77F VSB 1/2
GWINNER          N/A     73  73 100 SE9       29.82F
LANGDON        RAIN      70  70 100 SE10G20   29.83R
$$

CITY           SKY/WX    TMP DP  RH WIND       PRES   REMARKS
ABERDEEN       MOSUNNY   84  68  58 SE6       29.78F
MOBRIDGE       MOSUNNY   89  63  41 SE8G17    29.75F HX  90
BUFFALO          N/A     82  59  45 VRB3      29.77F
RAPID CITY     SUNNY     86  53  32 NW3       29.82F
GLASGOW        MOSUNNY   73  46  38 NE17G24   29.88F
SIDNEY         CLOUDY    68  52  56 N14         N/A
WOLF POINT     SUNNY     76  52  43 NE15G22   29.87F
GLENDIVE       CLOUDY    66  54  63 NE14      29.89S
MILES CITY     CLOUDY    71  50  47 W7        29.87S
BAKER          CLOUDY    70  57  63 N6        29.89R
$$

CITY           SKY/WX    TMP DP  RH WIND       PRES   REMARKS
BILLINGS       MOSUNNY   64  45  49 N8        29.92F
GREAT FALLS    LGT RAIN  51  49  92 E5        29.99S
$$



USA.gov is the U.S. government's official web portal to all federal, state and local government web resources and services.